Regional Weather Roundup
Issued by NWS Upton, NY

Current Version | Previous Version | Graphics & Text | Print | Product List | Glossary Off
Versions: 1 2 3 4 5 6 7 8 9 10 11 12 13 14 15 16 17 18 19 20 21 22 23 24 25 26 27 28 29 30 31 32 33 34 35 36 37 38 39 40 41 42 43 44 45 46 47 48 49 50

000
ASUS41 KOKX 251608
RWROKX

REGIONAL WEATHER ROUNDUP
NATIONAL WEATHER SERVICE NEW YORK NY
1200 PM EDT MON MAY 25 2015

NOTE: "FAIR" INDICATES FEW OR NO CLOUDS BELOW 12,000 FEET WITH NO
SIGNIFICANT WEATHER AND/OR OBSTRUCTIONS TO VISIBILITY.

NYZ071-072-176-178-NJZ106-104-251700-
NEW YORK CITY METRO AREA


CITY           SKY/WX    TMP DP  RH WIND       PRES   REMARKS
CENTRAL PARK   SUNNY     82  57  42 S5        30.26F
LAGUARDIA APRT MOSUNNY   80  56  43 SW12      30.23F
KENNEDY INTL   MOSUNNY   73  57  57 S9        30.27F
NEWARK/LIBERTY MOSUNNY   83  58  42 S12G21    30.23F
BRNX BOT. GARD   N/A     79  57  47 SW7       30.24F
TETERBORO      SUNNY     81  57  43 S8        30.21F
$$

NYZ177-179-078>081-251700-
LONG ISLAND NEW YORK

CITY           SKY/WX    TMP DP  RH WIND       PRES   REMARKS
FARMINGDALE    SUNNY     74  60  61 S8        30.26F
ISLIP          MOSUNNY   71  58  63 S8        30.25F
SHIRLEY        MOSUNNY   72  58  61 S9        30.28F
WESTHAMPTON    MOSUNNY   67  56  67 S10       30.29F
MONTAUK POINT    N/A     66  56  70 S8        30.30S
$$

NYZ052-065-067-251700-
HUDSON VALLEY

CITY           SKY/WX    TMP DP  RH WIND       PRES   REMARKS
WHITE PLAINS   SUNNY     79  59  50 SE7       30.24F
NEWBURGH       MOSUNNY   77  63  61 VRB6      30.23F
MONTGOMERY     PTSUNNY   80  61  52 SW9       30.21F
POUGHKEEPSIE   PTSUNNY   79  59  50 W7        30.21F
ALBANY         CLOUDY    73  50  44 S10       30.21S
$$

NJZ001-105-106-008-010-013-015-019>022-104-251700-
NEW JERSEY

CITY           SKY/WX    TMP DP  RH WIND       PRES   REMARKS
NEWARK/LIBERTY MOSUNNY   83  58  42 S12G21    30.23F
TETERBORO      SUNNY     81  57  43 S8        30.21F
CALDWELL       SUNNY     80  56  43 SW9       30.23F
MORRISTOWN     MOSUNNY   81  59  47 SW12      30.24F
SOMERVILLE     SUNNY     81  61  50 MISG      30.21F
SUSSEX         MOSUNNY   80  59  48 SW6       30.22F
ANDOVER          N/A     79  58  48 VRB5      30.22F
TRENTON        SUNNY     82  58  43 SW13G21   30.24F
MILLVILLE      SUNNY     80  60  50 VRB6      30.28F
ATLANTIC CITY  SUNNY     81  57  43 SW9       30.28F
WRIGHTSTOWN    SUNNY     83  58  43 W16       30.23F
TOMS RIVER     SUNNY    N/A N/A N/A SW13G22   30.26F
BELMAR         SUNNY     82  57  42 W12G17    30.25F
$$

PAZ047>061-062-071-251700-
EASTERN PENNSYLVANIA

CITY           SKY/WX    TMP DP  RH WIND       PRES   REMARKS
PHILADELPHIA   MOSUNNY   82  57  42 SW14      30.25F
ALLENTOWN      SUNNY     82  58  43 S8        30.23F
SCRANTON       MOSUNNY   83  56  39 SW10      30.20F
$$

CTZ002-004>006-009-010-012-RIZ004-006-007-MAZ004-011-015-251700-
SOUTHERN NEW ENGLAND
 IN CT

CITY           SKY/WX    TMP DP  RH WIND       PRES   REMARKS
BRADLEY INTL   CLOUDY    73  56  54 S7        30.23F
HARTFORD       PTSUNNY   76  59  55 SE10G16   30.23F
DANBURY        SUNNY     79  57  46 W10       30.25S
WTRBRY/OXFORD  MOSUNNY   77  61  57 SW7       30.27F
BRIDGEPORT     SUNNY     74  58  57 SW7       30.26F
MERIDEN        PTSUNNY   77  56  48 S9        30.25S
NEW HAVEN      MOSUNNY   71  58  63 VRB5      30.26F
CHESTER        FAIR      73  57  56 SW10      30.27F
GROTON         MOSUNNY   65  56  72 S8        30.27F
WILLIMANTIC    PTSUNNY   77  58  51 S6        30.25F

 IN RI

CITY           SKY/WX    TMP DP  RH WIND       PRES   REMARKS
PROVIDENCE     CLOUDY    72  58  61 S8        30.27R
BLOCK ISLAND   PTSUNNY   64  54  68 SW16      30.30S
WESTERLY       MOSUNNY   68  55  63 S7        30.29S

 IN MA

CITY           SKY/WX    TMP DP  RH WIND       PRES   REMARKS
BOSTON         CLOUDY    79  49  34 W10       30.23F
WORCESTER      CLOUDY    70  50  49 SW9       30.27S
WESTFIELD      CLOUDY    70  56  61 S6        30.24
PROVINCETOWN   CLOUDY    72  55  56 SW17      30.25S
NANTUCKET      MOSUNNY   64  53  67 SW17      30.31S
$$

ANZ330-335-338-340-345-350-353-355-251700-
COASTAL MARINE OBSERVATIONS


STATION/POSITION TIME  SKY/WX   TEMP    WIND        PRES    VSBY  WAVE
                                AIR SEA DIR/SP/G                  HT/PER
                 (UTC)          (F)     (DEG/KT/KT) (MB)    (MI)  (FT/S)
NY HARB ENTRANCE 1550            59 57  190/ 12/ 14 1024.3          2/ 4
4S FIRE IS       1503               54                N/A           2/ 5
20S FIRE ISLAND  1550            58 55  200/ 12/ 14 1025.0          2/ 5
GREAT SOUTH BAY  1515            60 64  220/  8/ 10   N/A
23SW MTP         1550            56 54  210/ 10/ 12 1025.5          2/ 5
HUDSON CANYON    NOT AVBL
KINGS POINT      1500            73 58  190/  4/  5 1023.9
CENTRAL LI SOUND 1500            58 55   20/  4/  4   N/A
EASTERN LI SOUND 1500            57     140/  4/  6   N/A
ROBBINS REEF     1500            67     160/ 13/ 14 1023.1
$$


>>>>>>>>>>>>>>>>>>>>>>>>>>>> KEY <<<<<<<<<<<<<<<<<<<<<<<<<<<
>                                                          <
>     SKY/WX - SKY CONDITION/PRESENT WEATHER               <
>     TMP    - TEMPERATURE IN FAHRENHEIT                   <
>     DP     - DEWPOINT IN FAHRENHEIT                      <
>     RH     - RELATIVE HUMIDITY IN PERCENT                <
>     WIND   - DIRECTION AND SPEED IN MPH                  <
>     PRES   - MEAN SEA LEVEL PRESSURE IN INCHES OF HG     <
>     WCI    - WIND CHILL INDEX                            <
>     VSB    - VISIBILITY IN MILES                         <
>     HX     - HEAT INDEX                                  <
>     TC     - TEMPERATURE IN CELSIUS                      <
>     VRB    - VARIABLE WIND DIRECTION                     <
>                                                          <
>>>>>>>>>>>>>>>>>>>>>>>>>>>> KEY <<<<<<<<<<<<<<<<<<<<<<<<<<<




USA.gov is the U.S. government's official web portal to all federal, state and local government web resources and services.